When you browse on this site, cookies collect data to enhance your experience and personalize the content and advertising you see.
Visit our Privacy Policy to learn more. By continuing to use the site, you agree to this use of cookies and data.
  • In Hungary
  • List of Countries
  • For 7 days
  • Water Temperature
  • Weather Map
  • News
  • Weather Widgets
  • user-avatar
    Login

    Hourly Weather Havlickuv Brod

    Today, 18 February, Tuesday

    Time Temperature Precipitation Wind Pressure Humidity
    00:00 +4°C° 0.1 mm 6 mps 724 mmHg 80%
    01:00 +4°C° 0.1 mm 6 mps 725 mmHg 79%
    02:00 +3°C° 0 mm 6 mps 725 mmHg 79%
    03:00 +3°C° 0 mm 6 mps 725 mmHg 80%
    04:00 +3°C° 0 mm 6 mps 725 mmHg 80%
    05:00 +2°C° 0 mm 6 mps 725 mmHg 80%
    06:00 +2°C° 0 mm 6 mps 725 mmHg 80%
    07:00 +2°C° 0 mm 6 mps 726 mmHg 80%
    08:00 +2°C° 0 mm 7 mps 726 mmHg 77%
    09:00 +3°C° 0 mm 7 mps 726 mmHg 74%
    10:00 +2°C° 0 mm 8 mps 727 mmHg 71%
    11:00 +4°C° 0 mm 8 mps 727 mmHg 68%
    12:00 +4°C° 0 mm 8 mps 727 mmHg 65%
    13:00 +4°C° 0 mm 8 mps 727 mmHg 62%
    14:00 +4°C° 0 mm 7 mps 727 mmHg 62%
    15:00 +4°C° 0 mm 7 mps 727 mmHg 62%
    16:00 +4°C° 0 mm 7 mps 726 mmHg 62%
    17:00 +3°C° 0 mm 6 mps 727 mmHg 67%
    18:00 +2°C° 0 mm 5 mps 727 mmHg 71%
    19:00 +1°C° 0 mm 4 mps 727 mmHg 76%
    20:00 +1°C° 0 mm 4 mps 727 mmHg 78%
    21:00 0°C° 0 mm 4 mps 727 mmHg 80%
    22:00 0°C° 0 mm 4 mps 727 mmHg 82%
    23:00 -1°C° 0 mm 4 mps 727 mmHg 83%

    Tomorrow, 19 February, Wednesday

    Time Temperature Precipitation Wind Pressure Humidity
    00:00 -1°C° 0 mm 4 mps 727 mmHg 84%
    01:00 -1°C° 0 mm 4 mps 726 mmHg 84%
    02:00 -1°C° 0 mm 4 mps 726 mmHg 83%
    03:00 -1°C° 0 mm 4 mps 725 mmHg 82%
    04:00 -1°C° 0 mm 4 mps 724 mmHg 81%
    05:00 -1°C° 0 mm 5 mps 724 mmHg 79%
    06:00 0°C° 0 mm 5 mps 723 mmHg 78%
    07:00 0°C° 0 mm 5 mps 723 mmHg 76%
    08:00 +1°C° 0 mm 6 mps 723 mmHg 74%
    09:00 0°C° 0 mm 7 mps 722 mmHg 71%
    10:00 +2°C° 0 mm 7 mps 722 mmHg 69%
    11:00 +1°C° 0.1 mm 8 mps 721 mmHg 73%
    12:00 +1°C° 0.1 mm 8 mps 721 mmHg 77%
    13:00 +1°C° 0.1 mm 8 mps 721 mmHg 80%
    14:00 +2°C° 0.3 mm 7 mps 721 mmHg 80%
    15:00 +1°C° 0.3 mm 6 mps 721 mmHg 79%
    16:00 -1°C° 0.3 mm 6 mps 721 mmHg 78%
    17:00 0°C° 0.2 mm 5 mps 722 mmHg 78%
    18:00 -1°C° 0.2 mm 5 mps 723 mmHg 77%
    19:00 -1°C° 0.2 mm 5 mps 724 mmHg 77%
    20:00 -1°C° 0 mm 5 mps 724 mmHg 78%
    21:00 -1°C° 0 mm 5 mps 724 mmHg 78%
    22:00 -2°C° 0 mm 5 mps 725 mmHg 79%
    23:00 -2°C° 0 mm 5 mps 725 mmHg 81%

    Day after tomorrow, 20 February, Thursday

    Time Temperature Precipitation Wind Pressure Humidity
    00:00 -2°C° 0 mm 5 mps 725 mmHg 82%
    01:00 -4°C° 0 mm 5 mps 725 mmHg 84%
    02:00 -3°C° 0 mm 4 mps 725 mmHg 85%
    03:00 -3°C° 0 mm 4 mps 725 mmHg 85%
    04:00 -3°C° 0 mm 4 mps 725 mmHg 86%
    05:00 -3°C° 0 mm 4 mps 725 mmHg 86%
    06:00 -2°C° 0 mm 3 mps 725 mmHg 86%
    07:00 -2°C° 0 mm 3 mps 725 mmHg 87%
    08:00 -1°C° 0 mm 3 mps 725 mmHg 85%
    09:00 -1°C° 0 mm 4 mps 725 mmHg 83%
    10:00 0°C° 0 mm 4 mps 726 mmHg 81%
    11:00 +1°C° 0 mm 4 mps 725 mmHg 80%
    12:00 +2°C° 0 mm 3 mps 725 mmHg 79%
    13:00 +3°C° 0 mm 3 mps 725 mmHg 77%
    14:00 +3°C° 0 mm 3 mps 725 mmHg 78%
    15:00 +4°C° 0 mm 2 mps 724 mmHg 79%
    16:00 +4°C° 0 mm 2 mps 724 mmHg 80%
    17:00 +4°C° 0 mm 2 mps 724 mmHg 82%
    18:00 +3°C° 0 mm 2 mps 724 mmHg 85%
    19:00 +2°C° 0 mm 2 mps 724 mmHg 87%
    20:00 +1°C° 0 mm 3 mps 724 mmHg 88%
    21:00 +1°C° 0 mm 3 mps 724 mmHg 89%
    22:00 0°C° 0 mm 3 mps 724 mmHg 90%
    23:00 0°C° 0 mm 3 mps 724 mmHg 90%

    21 February, Friday

    Time Temperature Precipitation Wind Pressure Humidity
    00:00 0°C° 0 mm 3 mps 724 mmHg 91%
    01:00 0°C° 0 mm 3 mps 723 mmHg 91%
    02:00 0°C° 0 mm 3 mps 723 mmHg 88%
    03:00 +1°C° 0 mm 3 mps 723 mmHg 85%
    04:00 0°C° 0 mm 4 mps 723 mmHg 82%
    05:00 0°C° 0 mm 4 mps 724 mmHg 84%
    06:00 +1°C° 0 mm 5 mps 724 mmHg 85%
    07:00 +1°C° 0 mm 6 mps 724 mmHg 87%
    14:00 +2°C° 0 mm 8 mps 729 mmHg 54%
    15:00 +3°C° 0 mm 7 mps 729 mmHg 56%
    16:00 +2°C° 0 mm 6 mps 730 mmHg 58%
    17:00 +1°C° 0 mm 5 mps 730 mmHg 63%
    18:00 0°C° 0 mm 4 mps 731 mmHg 69%
    19:00 0°C° 0 mm 3 mps 731 mmHg 75%
    20:00 0°C° 0 mm 3 mps 731 mmHg 77%
    21:00 0°C° 0 mm 3 mps 731 mmHg 79%
    22:00 -1°C° 0 mm 3 mps 732 mmHg 81%
    23:00 -1°C° 0 mm 3 mps 732 mmHg 82%

    22 February, Saturday

    Time Temperature Precipitation Wind Pressure Humidity
    00:00 -1°C° 0 mm 3 mps 732 mmHg 82%
    01:00 -1°C° 0 mm 3 mps 731 mmHg 83%
    02:00 -1°C° 0 mm 3 mps 731 mmHg 81%
    03:00 -1°C° 0 mm 3 mps 731 mmHg 80%
    04:00 -1°C° 0 mm 3 mps 731 mmHg 78%
    05:00 -1°C° 0 mm 4 mps 731 mmHg 76%
    06:00 -1°C° 0 mm 4 mps 731 mmHg 74%
    07:00 -1°C° 0 mm 4 mps 730 mmHg 72%
    08:00 0°C° 0 mm 5 mps 730 mmHg 66%
    09:00 +1°C° 0 mm 5 mps 730 mmHg 61%
    10:00 +2°C° 0 mm 6 mps 730 mmHg 55%
    11:00 +3°C° 0 mm 6 mps 730 mmHg 53%
    12:00 +4°C° 0 mm 6 mps 730 mmHg 51%
    13:00 +7°C° 0 mm 6 mps 729 mmHg 49%
    14:00 +5°C° 0 mm 6 mps 729 mmHg 51%
    15:00 +6°C° 0 mm 5 mps 728 mmHg 52%
    16:00 +6°C° 0 mm 5 mps 728 mmHg 54%
    17:00 +6°C° 0 mm 5 mps 728 mmHg 56%
    18:00 +5°C° 0 mm 5 mps 728 mmHg 58%
    19:00 +4°C° 0 mm 6 mps 728 mmHg 60%
    20:00 +4°C° 0 mm 6 mps 728 mmHg 60%
    21:00 +4°C° 0 mm 6 mps 728 mmHg 61%
    22:00 +4°C° 0 mm 7 mps 728 mmHg 62%
    23:00 +4°C° 0 mm 7 mps 728 mmHg 64%

    23 February, Sunday

    Time Temperature Precipitation Wind Pressure Humidity
    00:00 +4°C° 0 mm 7 mps 728 mmHg 67%
    01:00 +4°C° 0 mm 7 mps 728 mmHg 70%
    02:00 +4°C° 0 mm 8 mps 727 mmHg 73%
    03:00 +4°C° 0 mm 8 mps 727 mmHg 75%
    04:00 +4°C° 0 mm 8 mps 727 mmHg 78%
    05:00 +4°C° 0 mm 8 mps 727 mmHg 79%
    06:00 +4°C° 0 mm 8 mps 727 mmHg 80%
    07:00 +5°C° 0 mm 8 mps 727 mmHg 82%
    08:00 +5°C° 0 mm 8 mps 727 mmHg 80%
    09:00 +6°C° 0 mm 8 mps 727 mmHg 79%
    10:00 +7°C° 0 mm 8 mps 727 mmHg 78%
    11:00 +7°C° 0 mm 8 mps 727 mmHg 77%
    12:00 +9°C° 0 mm 8 mps 727 mmHg 76%
    13:00 +8°C° 0 mm 9 mps 726 mmHg 75%
    14:00 +8°C° 0 mm 9 mps 726 mmHg 75%
    15:00 +10°C° 0 mm 9 mps 725 mmHg 75%
    16:00 +10°C° 0 mm 9 mps 725 mmHg 75%
    17:00 +10°C° 0 mm 9 mps 725 mmHg 76%
    18:00 +10°C° 0 mm 9 mps 725 mmHg 76%
    19:00 +8°C° 0 mm 9 mps 725 mmHg 76%
    20:00 +8°C° 0 mm 9 mps 725 mmHg 78%
    21:00 +8°C° 0 mm 9 mps 725 mmHg 79%
    22:00 +9°C° 0 mm 8 mps 725 mmHg 80%
    23:00 +7°C° 0 mm 8 mps 725 mmHg 82%
    Show more